User: anonymous   Login
Location: Unspecified
(0.0000°N, 0.0000°E)
Time: 08:47:50
(UTC+00:00)
Language:

DIAMOND RED - Orbit

View from above orbital plane
View from above orbital plane
View from above satellite
View from above satellite

Ground track
Ground track

The orbit data is extracted from the following two-line orbital elements,

1 42783U 17036U   18351.15394368  .00000779  00000-0  37288-4 0  9993
2 42783  97.3785  47.5980 0013200 148.9978 211.2040 15.21828760 82336
Epoch (UTC): 17 December 2018 03:41:40
Eccentricity: 0.0013200
inclination: 97.3785°
perigee height: 491 km
apogee height: 509 km
right ascension of ascending node: 47.5980°
argument of perigee: 148.9978°
revolutions per day: 15.21828760
mean anomaly at epoch: 211.2040°
orbit number at epoch: 8233

The dashed part of the orbit path shows where the satellite is in the earth's shadow,  

DLR